Wind_Speed
40 41 40 40 39 38 38 37 37 36 36 35 35 35 36 36 35 34 34 35 36 36 35 35 35 36 36 34 33 33 32 32 32 31 31 30 29 29 29 28 22 14 12 15 20 21 19 19 19 19 21 21 21 22 21 20 20 19 19 19 20 21 22
43 43 41 40 39 38 37 37 36 36 37 38 39 37 36 35 34 33 34 34 35 36 35 34 35 36 36 34 33 34 33 32 32 31 30 30 29 28 29 28 26 20 13 13 19 22 21 21 21 22 23 23 22 21 19 19 19 19 18 19 20 21 22
43 42 41 40 40 39 37 37 36 36 37 39 40 40 38 36 35 34 34 35 35 36 35 33 34 36 36 33 33 34 34 33 33 31 31 31 30 29 29 29 28 25 17 12 16 21 22 21 22 23 24 23 21 20 19 19 18 18 18 18 19 19 20
42 41 41 40 40 39 38 37 38 38 39 38 39 40 41 40 39 37 36 36 36 36 35 34 34 36 35 33 33 34 33 33 33 32 31 30 30 29 29 29 29 28 24 17 15 20 22 20 21 22 22 21 20 19 19 18 18 17 18 18 17 18 19
41 40 39 39 39 39 39 41 42 41 40 39 38 39 41 42 41 40 38 38 38 37 36 35 35 36 35 33 33 34 33 33 32 32 31 30 30 29 29 28 29 29 27 23 18 19 21 19 19 19 19 19 19 18 18 18 18 17 17 17 17 17 18
41 40 39 40 41 42 43 42 41 39 38 39 39 39 41 43 43 42 41 39 39 39 38 37 37 37 36 35 35 35 34 33 32 32 31 31 30 29 28 27 28 27 26 25 23 21 20 18 18 18 18 19 19 18 18 18 17 17 16 16 17 17 16
43 42 42 42 42 42 40 37 36 35 36 37 39 40 41 42 44 44 43 41 40 39 39 38 38 38 37 37 37 37 35 33 32 32 32 32 30 29 28 27 27 26 25 23 22 21 20 19 18 18 19 19 17 16 17 16 15 16 16 15 15 17 18
44 44 43 41 38 36 35 35 35 36 36 37 39 40 40 40 41 43 44 43 41 39 38 38 39 39 39 39 39 38 36 34 33 31 30 31 30 29 28 27 25 24 24 22 20 18 19 19 17 17 18 17 14 14 16 16 14 14 16 15 15 17 19
42 42 41 39 37 38 38 39 39 38 37 37 39 40 40 40 40 42 43 42 40 39 39 38 38 38 39 39 39 39 38 37 35 33 31 29 29 28 27 26 25 23 22 20 18 17 17 16 15 16 16 16 17 17 17 16 13 12 15 16 17 19 18
41 40 40 41 43 43 42 41 40 38 38 38 38 39 41 40 40 41 40 39 39 39 39 38 38 38 38 39 40 40 39 38 37 36 35 32 30 30 28 25 24 23 22 19 16 15 15 12 12 16 17 18 20 19 17 15 13 13 14 14 15 17 15
41 42 41 41 43 44 42 41 40 39 40 40 39 39 40 40 39 37 37 37 37 36 36 36 37 37 37 38 38 38 38 39 38 38 39 37 35 34 32 29 26 23 22 20 16 16 17 14 14 17 20 20 19 18 16 15 14 13 13 11 8 9 9
42 43 42 42 42 43 43 43 42 42 42 41 39 38 39 39 38 37 36 37 37 35 33 33 34 34 35 36 36 36 35 36 39 40 40 38 36 35 35 34 32 28 25 22 19 17 18 18 18 18 20 22 20 18 17 16 14 13 13 12 9 8 10
43 43 43 42 42 44 45 45 44 43 42 42 41 39 39 38 37 37 38 38 38 36 34 33 32 31 32 33 34 35 34 34 35 36 37 36 35 35 35 35 36 35 32 29 25 22 21 22 22 21 22 24 22 19 16 15 15 16 15 14 13 14 16
44 44 44 43 43 45 46 46 44 43 43 45 42 40 40 39 37 38 38 37 36 34 33 33 32 30 30 30 32 33 33 32 31 31 32 33 32 32 32 33 32 33 34 34 32 28 26 26 26 25 25 25 22 19 18 17 17 17 15 15 15 16 18
43 44 45 45 45 46 47 46 44 43 45 46 42 40 40 37 34 34 33 32 31 29 30 31 32 31 31 30 31 32 32 31 30 29 29 29 29 28 28 29 28 25 26 29 30 30 30 30 29 28 26 24 21 20 19 18 17 15 13 13 14 15 18
42 43 44 47 46 45 45 45 44 44 45 44 42 40 37 34 32 31 30 30 29 28 28 30 32 33 31 30 30 31 32 31 30 29 28 27 27 27 27 28 28 25 23 25 26 29 30 29 30 28 26 24 22 22 20 17 16 15 12 10 9 12 17
43 43 44 45 45 44 44 44 43 43 44 44 41 38 35 32 31 30 29 29 28 26 28 30 32 33 31 29 30 30 31 31 29 29 28 26 24 24 25 27 27 28 27 26 26 27 28 26 26 25 24 22 22 22 21 18 16 16 14 10 6 7 11
44 44 44 44 45 44 42 42 42 42 43 42 39 36 33 31 29 28 27 25 23 24 26 29 32 33 32 31 30 30 31 31 29 27 27 26 24 23 23 24 25 27 28 27 25 24 23 24 25 24 22 21 21 21 21 21 20 19 16 12 9 7 8
44 44 45 45 45 43 42 42 42 42 41 39 37 35 32 29 26 24 22 20 19 21 24 26 28 30 32 31 29 29 30 31 28 26 25 25 24 23 23 25 25 25 25 26 27 24 20 19 23 24 23 22 21 20 22 24 23 21 18 16 14 11 6
43 43 44 44 43 43 42 42 41 40 40 37 35 35 32 27 23 20 19 18 18 19 20 23 25 26 28 29 29 29 30 30 28 26 25 24 22 21 22 24 25 24 23 24 26 26 22 17 17 19 23 24 21 20 22 23 24 24 22 20 18 15 10
43 42 42 43 43 42 42 41 39 37 37 36 35 33 30 25 21 19 20 17 18 18 18 20 22 23 25 26 28 29 29 28 27 26 26 25 24 22 21 21 22 22 22 21 22 24 24 22 19 17 18 23 25 23 22 22 23 25 25 23 21 17 15
42 40 40 42 42 41 41 40 38 36 36 35 34 31 28 24 21 20 18 14 16 17 18 21 21 23 25 26 26 28 27 26 25 24 24 25 25 23 20 19 20 21 21 20 20 20 21 24 24 21 17 18 23 25 25 22 22 23 24 25 25 22 19
40 38 37 38 40 41 43 42 39 37 35 33 32 29 26 23 20 19 17 13 17 19 18 19 22 24 25 25 26 27 26 24 23 22 22 23 23 23 21 19 21 22 22 21 20 19 18 21 24 24 22 19 18 21 23 23 23 23 24 24 25 25 23
37 34 32 34 37 41 45 44 40 37 34 30 28 26 23 21 19 18 16 12 13 19 20 19 21 24 24 24 24 24 23 23 22 22 22 22 21 21 22 21 22 23 23 20 17 16 17 19 23 26 27 25 22 19 18 20 22 24 25 26 25 24 23
35 33 31 31 33 38 43 44 40 36 32 28 24 22 19 17 16 15 14 13 10 12 19 22 21 21 22 22 21 21 20 20 20 20 21 22 21 20 20 22 24 24 21 18 16 16 17 18 21 26 29 27 25 22 21 20 19 20 21 22 21 20 20
32 31 30 30 31 34 38 38 35 32 29 25 21 19 17 15 15 14 12 11 11 9 14 21 20 19 20 20 19 18 17 16 16 17 18 19 19 19 19 19 23 23 20 18 18 17 17 18 20 23 25 25 23 24 26 26 23 19 18 19 19 18 18
31 31 29 28 29 31 32 32 30 28 25 22 19 18 16 13 12 12 11 9 9 8 7 16 19 17 18 18 16 16 15 14 13 14 15 16 17 18 18 18 22 25 22 20 20 18 17 19 20 20 20 22 23 24 26 26 22 18 17 19 19 18 18
32 31 28 25 25 26 27 28 28 27 24 20 18 17 15 12 10 9 8 7 7 5 4 11 16 14 14 13 11 12 13 13 13 13 14 15 17 17 17 17 22 26 24 21 21 19 17 18 19 20 21 22 22 22 22 22 21 19 18 19 19 17 15
32 29 27 26 26 25 24 25 30 30 23 17 15 16 16 14 11 7 5 4 7 4 3 9 12 10 9 9 8 8 10 11 13 14 14 15 17 18 18 17 19 23 23 21 20 19 18 18 18 19 21 21 20 20 20 21 22 20 18 19 20 18 15
35 34 33 32 33 34 32 32 37 35 21 12 11 12 14 14 12 8 3 3 7 7 5 8 10 8 8 9 8 7 8 8 10 12 14 15 16 17 18 18 18 21 23 22 21 19 18 18 18 18 19 20 20 20 20 20 21 19 17 18 20 18 14
40 41 40 37 37 41 42 43 45 40 23 10 10 10 8 8 9 10 8 7 10 9 6 7 10 9 8 8 8 7 7 8 9 10 12 14 15 16 17 17 17 19 21 22 21 19 18 18 18 17 18 19 18 19 19 19 19 18 16 16 17 15 13
40 43 44 41 40 43 45 45 46 46 34 15 7 8 7 7 7 9 12 11 11 10 7 7 9 10 9 9 9 9 9 10 10 11 12 13 14 15 17 18 18 18 20 21 21 20 19 18 19 19 19 19 18 18 18 18 18 17 15 15 15 13 11
41 42 43 42 41 44 46 45 44 47 46 33 18 8 6 6 6 4 10 12 11 8 5 5 8 10 10 10 10 10 10 12 13 14 14 15 15 15 17 18 19 19 20 20 21 21 20 20 20 20 20 20 19 19 19 18 17 16 15 15 14 12 10
44 43 42 40 40 42 45 44 42 43 44 41 35 25 18 17 17 14 12 11 9 6 3 2 4 5 6 8 9 9 10 11 9 8 12 15 16 16 17 18 18 19 20 20 20 20 20 20 20 21 21 21 20 19 19 18 17 16 15 15 14 13 12
40 42 40 37 37 40 42 41 40 39 39 39 38 34 31 32 29 24 21 18 13 9 7 5 2 0 2 4 5 5 5 3 6 12 16 18 18 18 19 19 19 19 19 20 21 21 21 21 20 20 21 21 20 19 18 17 15 15 15 14 13 13 14
35 38 37 34 35 39 42 40 37 34 34 35 36 36 36 33 26 20 20 24 24 20 18 16 13 10 7 6 6 6 6 9 13 16 17 18 20 20 20 20 20 19 18 19 19 18 18 19 18 18 18 18 17 15 14 13 12 12 12 11 10 10 12
Wind_Direction
324 322 319 317 314 312 309 306 303 301 298 293 283 273 265 260 254 249 250 251 251 249 247 246 246 248 248 246 245 244 244 244 243 242 242 241 240 239 238 237 234 242 255 246 245 249 246 241 238 241 247 255 264 271 277 281 285 287 287 287 286 286 286
322 320 318 315 313 312 310 306 303 300 297 294 290 282 270 261 254 252 253 252 251 249 247 246 246 248 249 246 244 243 243 242 241 240 239 238 237 238 237 235 234 238 248 248 243 245 245 241 241 247 255 262 269 274 278 282 285 289 290 290 290 289 289
319 318 315 313 311 310 309 306 304 301 298 294 290 285 277 268 260 256 255 252 251 250 248 246 245 247 248 246 243 243 241 241 240 238 238 237 236 236 237 235 234 236 242 246 243 243 242 238 240 248 256 263 268 272 275 279 284 290 292 290 291 292 291
317 315 314 312 310 309 307 306 303 300 297 293 289 285 280 274 266 259 255 252 250 250 248 246 246 247 248 245 242 242 240 239 238 236 236 236 235 235 237 236 234 235 239 243 244 244 242 239 241 248 256 262 264 266 270 276 283 289 289 287 289 292 293
316 314 313 310 309 307 305 304 302 299 295 292 288 285 281 276 270 262 256 253 251 250 248 247 247 248 247 244 240 240 239 237 236 235 234 234 234 234 235 236 234 235 237 238 240 244 244 241 242 248 254 258 258 261 266 272 279 285 287 287 289 290 293
314 313 311 308 307 306 304 302 300 296 293 291 288 285 281 277 272 267 260 255 251 250 249 247 248 249 248 243 240 239 237 236 235 234 233 232 232 233 233 233 234 233 234 235 237 241 243 240 238 241 248 253 254 258 264 271 278 283 284 287 292 294 296
314 312 310 308 307 306 304 302 299 296 293 291 289 286 282 278 274 269 264 258 253 250 249 248 248 249 248 244 241 239 236 234 233 232 233 232 231 231 231 230 231 230 229 231 233 235 238 240 241 240 244 251 253 254 260 265 272 281 286 289 292 296 300
314 313 311 309 306 305 304 301 299 297 294 291 289 285 280 277 274 271 267 261 254 250 248 248 248 248 247 245 242 239 236 233 232 231 231 231 229 228 228 227 227 226 226 227 228 230 234 238 241 238 240 244 241 239 248 255 259 271 283 289 292 295 301
314 312 311 309 306 304 303 300 297 295 293 290 287 283 277 274 272 270 267 260 253 250 249 247 247 247 247 247 244 240 237 234 232 230 230 229 226 225 224 223 223 222 222 223 224 227 229 234 236 232 229 229 225 230 243 252 257 263 274 286 292 294 299
314 311 309 307 306 304 303 300 297 295 292 289 287 283 279 275 270 266 263 258 252 248 246 245 245 246 248 248 244 239 236 234 231 230 230 229 226 223 220 218 218 219 220 220 222 223 222 228 234 228 223 227 231 236 244 249 250 257 271 283 289 293 300
313 311 309 307 306 304 302 300 298 296 294 291 288 285 282 279 274 269 264 261 255 249 243 242 242 244 245 244 241 237 234 233 232 232 232 231 228 224 222 218 216 216 216 218 221 222 220 224 233 230 226 230 234 235 239 243 244 253 266 271 274 289 298
313 311 310 308 305 303 301 300 298 297 296 293 289 286 282 279 276 272 267 263 260 253 246 241 240 240 240 238 236 234 231 232 234 236 237 235 231 228 225 222 221 220 218 217 219 222 222 225 232 232 228 227 229 231 234 239 243 247 252 254 253 261 270
313 311 310 308 305 303 302 300 300 299 296 293 291 287 283 279 277 275 271 266 261 255 248 242 237 235 234 232 231 230 228 229 232 235 237 237 235 233 230 226 225 224 224 222 222 223 225 226 228 230 229 229 228 228 229 231 238 243 246 248 251 259 270
313 311 310 308 306 304 302 301 301 299 296 294 292 288 285 283 279 276 274 270 263 253 244 238 232 228 227 225 224 224 224 224 225 227 231 233 234 235 234 232 230 228 227 226 223 224 227 229 230 230 233 233 229 228 231 232 237 240 241 245 252 263 275
311 310 309 309 307 304 303 302 301 300 298 297 295 292 291 289 286 283 280 278 272 258 244 236 227 223 222 219 217 218 219 219 219 220 222 226 229 231 232 234 234 233 233 231 226 224 227 231 233 233 235 235 232 234 240 243 246 246 246 252 259 268 276
310 309 308 308 307 304 302 303 303 302 301 300 298 296 295 294 292 289 283 280 276 263 247 235 224 219 218 214 213 214 215 215 214 215 217 219 223 227 231 234 236 238 243 243 235 228 228 233 235 235 236 237 236 239 242 242 245 245 242 248 260 268 276
310 309 308 307 306 304 302 302 303 303 302 302 300 298 297 294 290 284 279 276 271 258 242 229 220 216 213 210 210 212 216 217 212 209 213 216 220 225 230 234 238 239 242 246 243 234 229 231 232 231 231 232 232 235 236 230 228 230 228 226 238 261 272
310 308 308 307 305 303 301 301 302 303 302 302 302 299 297 294 287 281 281 278 264 247 233 222 216 213 209 208 207 209 217 221 213 205 208 213 217 222 225 229 233 235 237 242 245 242 234 229 226 223 221 224 224 224 225 222 220 222 219 211 216 237 262
309 307 308 307 305 304 302 300 302 303 302 301 302 300 299 296 288 285 286 274 250 232 223 215 210 208 207 207 206 208 217 221 215 205 204 208 211 216 222 225 226 228 231 234 240 245 245 237 228 221 215 218 223 219 218 221 223 222 217 212 217 224 235
308 306 306 306 305 304 303 301 301 301 300 301 302 302 301 299 294 297 297 271 235 217 213 209 206 206 205 205 206 211 219 223 218 208 204 206 207 211 219 222 222 223 225 228 232 239 246 248 241 228 214 211 217 219 217 220 221 221 221 218 217 214 208
309 307 306 306 305 304 303 301 299 298 299 302 303 301 301 301 297 302 299 266 224 207 204 203 203 204 205 207 210 214 220 226 223 212 205 207 211 216 221 220 216 216 217 220 227 233 239 245 249 246 225 209 208 214 218 220 221 221 223 223 220 214 209
310 308 306 307 307 305 303 301 298 296 296 298 300 299 300 300 297 297 293 258 217 207 205 202 202 204 204 208 213 217 219 224 226 219 211 211 216 221 224 217 208 206 206 209 216 223 230 235 238 246 245 221 206 207 213 219 221 221 223 226 229 229 223
311 310 308 308 308 307 305 303 300 297 295 295 297 297 297 297 294 297 295 258 217 210 207 202 203 205 206 210 216 220 220 219 222 221 219 220 222 224 221 210 199 197 199 201 206 212 219 223 225 231 239 235 217 206 211 220 222 223 226 229 233 238 239
312 311 309 308 307 306 307 307 305 302 298 293 292 293 296 296 291 294 305 293 237 216 207 203 204 206 209 214 219 223 224 222 222 221 222 225 226 223 219 207 192 190 193 195 198 207 213 214 214 219 227 230 223 215 217 220 220 222 227 230 234 239 243
312 311 308 305 303 303 306 308 308 306 303 297 291 290 294 296 292 294 311 323 300 239 212 206 207 208 208 213 219 223 227 230 229 227 226 227 226 224 220 206 191 186 187 189 193 204 212 212 211 216 222 225 222 221 224 227 226 224 224 225 230 236 242
310 309 307 304 302 302 305 307 308 308 305 300 294 293 294 294 295 300 307 310 308 282 225 209 207 205 205 210 215 218 223 229 231 230 232 232 232 234 229 208 188 181 182 188 195 204 211 212 211 213 218 220 218 218 221 226 229 227 221 220 223 227 235
311 309 305 303 304 306 309 311 312 311 308 304 300 299 301 300 296 302 304 284 281 297 247 211 205 203 202 207 214 220 224 229 229 232 237 239 238 240 237 216 193 186 188 194 197 202 208 210 208 207 208 208 209 210 213 217 217 213 212 216 216 216 224
308 306 305 307 311 316 319 319 318 315 309 304 302 297 295 296 291 297 304 273 253 288 266 213 208 207 207 209 217 225 228 230 230 231 236 238 234 234 237 226 202 192 194 197 197 200 205 202 198 197 198 199 199 201 204 206 203 202 205 207 204 202 210
312 313 320 326 327 326 323 321 323 322 311 298 294 285 279 283 281 282 300 251 214 222 228 200 198 202 201 203 217 225 223 221 220 221 228 233 230 226 228 226 207 193 192 195 194 196 201 197 190 188 190 190 190 191 195 196 195 197 200 196 193 196 201
331 337 345 345 340 336 333 332 336 338 327 299 293 287 275 275 269 256 255 175 181 197 202 183 183 191 194 198 211 220 218 215 212 214 220 226 225 220 216 216 209 196 192 194 195 196 197 194 187 180 179 181 184 186 191 193 191 191 191 185 185 191 198
345 350 354 352 346 343 343 343 347 352 348 312 299 313 308 286 258 227 207 175 168 184 194 174 171 184 194 201 209 218 230 235 231 227 222 217 216 215 208 205 206 201 194 192 196 199 198 192 185 179 177 178 180 181 184 185 183 183 183 181 181 185 193
352 353 355 353 350 349 349 348 352 1 7 2 306 289 300 303 276 226 201 176 160 171 190 176 171 183 195 204 213 222 232 237 240 246 239 218 206 205 201 197 199 201 197 193 193 197 197 190 183 180 178 176 175 173 173 173 175 178 179 177 176 175 181
355 355 354 353 353 353 353 353 356 4 13 20 16 348 325 327 321 219 179 160 146 153 172 164 165 178 189 202 216 228 240 250 255 252 236 211 194 188 187 189 193 196 196 196 194 193 194 191 184 178 173 171 169 166 163 164 170 176 175 172 170 169 176
350 352 353 353 355 356 356 357 1 5 12 20 23 27 44 59 60 72 102 120 126 132 133 139 162 181 203 225 242 254 259 262 255 214 182 172 170 171 171 176 181 182 183 183 179 175 174 174 172 168 164 162 162 162 160 162 168 174 173 170 169 169 174
341 346 350 352 356 357 357 359 3 5 11 18 22 30 48 59 55 49 51 53 53 51 49 53 70 221 258 249 254 259 245 211 125 123 132 136 138 140 141 144 147 148 150 151 148 145 146 145 147 150 151 151 153 154 155 158 163 167 169 170 171 173 176
336 342 347 352 358 360 360 1 2 4 11 19 24 32 44 47 37 27 32 36 36 38 45 49 50 50 52 65 77 82 96 104 101 104 111 116 117 119 120 122 126 127 129 132 134 136 138 138 139 144 147 148 150 154 158 162 165 166 168 171 171 172 179
Height
763 760 757 754 751 748 745 742 739 736 734 732 728 725 722 720 719 717 716 716 715 715 715 715 715 714 715 717 717 718 719 720 721 723 723 724 725 725 726 726 727 723 719 720 723 723 724 725 726 726 726 726 726 726 726 725 725 724 723 722 721 721 720
760 757 754 751 747 745 742 738 736 733 730 727 724 722 719 716 714 712 711 711 710 710 710 710 709 709 710 712 712 712 713 714 716 717 718 719 720 720 720 722 722 720 718 717 719 721 721 722 723 722 723 723 723 723 723 723 722 722 721 720 719 718 717
758 754 751 748 744 741 738 735 732 729 726 723 720 718 715 712 710 708 706 705 704 704 705 705 704 703 705 706 707 706 707 709 710 712 712 713 714 715 715 717 718 717 715 714 716 718 718 718 719 719 720 721 721 721 721 720 720 720 719 718 717 716 714
756 752 748 744 740 736 733 730 728 725 722 719 716 713 710 707 705 702 700 699 699 699 699 699 698 698 699 701 701 700 701 703 704 706 707 708 709 710 711 712 713 713 712 712 712 714 714 715 715 716 717 718 718 718 718 718 718 717 717 716 715 713 712
752 749 745 740 736 732 728 726 723 719 716 713 711 708 704 701 699 696 695 693 693 693 693 693 692 692 694 695 694 694 695 697 698 700 701 702 704 705 706 708 709 709 709 710 709 710 711 712 712 713 714 715 716 716 716 716 716 715 715 714 712 711 710
748 745 741 736 732 728 724 720 717 714 710 707 705 703 699 696 693 690 688 687 686 686 686 686 686 686 688 688 688 687 689 690 692 694 695 696 698 700 702 703 704 705 706 706 706 707 708 709 709 710 711 712 713 713 713 713 713 713 712 711 710 708 708
742 739 736 731 727 723 719 716 712 709 706 702 699 697 693 690 687 684 682 681 680 679 680 680 680 681 681 682 681 681 682 685 687 688 689 691 693 695 697 698 699 700 701 702 702 704 705 705 706 707 708 709 711 711 711 711 710 710 710 709 708 706 705
737 733 729 726 722 719 715 712 708 705 701 697 694 691 688 684 681 678 676 674 673 673 673 673 673 674 675 675 675 675 677 678 681 683 684 685 688 690 692 693 695 696 697 698 699 700 701 702 704 704 705 706 708 708 708 708 708 708 707 707 706 704 704
734 729 724 720 717 715 712 708 704 700 697 693 688 684 681 678 675 672 669 667 666 666 666 666 667 667 668 669 669 670 671 672 675 677 678 680 683 685 687 688 690 691 692 694 695 696 697 699 700 701 702 703 703 704 704 705 706 706 706 705 704 703 702
730 726 722 717 712 708 706 702 698 695 691 687 683 678 674 670 667 665 662 660 658 657 658 659 660 661 662 663 664 664 665 667 669 671 672 675 677 679 681 683 685 686 688 689 691 692 694 695 695 697 698 698 699 700 702 703 704 704 704 704 702 701 700
725 721 717 713 708 702 699 696 692 689 684 680 676 672 668 664 660 657 655 653 651 650 650 651 652 654 656 657 658 658 660 661 663 665 667 669 671 673 675 678 680 681 683 685 686 688 690 691 691 693 695 695 696 698 699 700 701 702 702 702 702 700 699
721 716 712 708 703 698 694 690 686 682 677 673 669 666 662 657 654 651 648 646 645 644 644 645 646 647 649 650 651 653 654 656 658 660 662 664 666 667 669 672 674 676 679 681 682 684 685 686 687 689 691 692 693 695 696 698 699 699 700 700 700 700 699
716 711 707 703 698 693 688 683 679 676 670 665 662 658 654 651 647 644 642 640 638 638 638 638 639 641 642 644 646 648 650 651 653 655 657 659 661 663 664 666 668 670 673 675 678 679 680 682 684 685 686 688 690 692 694 695 696 697 697 698 698 698 697
710 706 702 698 693 687 682 678 673 669 663 658 654 650 646 644 641 638 635 632 631 630 630 631 632 634 636 638 640 642 644 647 649 651 654 655 657 658 660 662 664 666 668 670 672 673 675 678 680 681 683 685 687 689 691 692 693 694 695 696 696 696 696
706 701 696 692 688 682 676 672 668 662 656 651 647 643 639 637 634 631 628 626 625 624 623 624 626 628 630 633 635 637 640 642 645 647 649 651 653 655 657 658 660 663 665 666 668 669 671 674 676 678 680 683 685 686 688 690 691 692 693 694 695 695 694
703 698 692 686 682 677 671 666 662 656 650 645 641 637 634 631 628 626 623 621 620 619 618 619 621 623 625 627 630 632 635 638 640 643 645 647 649 651 653 655 656 659 661 663 665 666 668 671 673 675 678 680 682 684 685 688 689 690 692 693 694 693 692
698 694 689 683 677 673 667 661 657 652 645 640 636 632 630 627 624 621 618 616 614 613 613 614 615 618 620 623 626 628 631 634 636 639 641 644 646 648 650 651 654 656 658 660 662 663 665 667 670 672 675 677 678 680 682 685 687 687 689 691 692 692 691
693 688 684 679 673 668 663 657 653 648 642 636 632 628 626 623 619 616 613 611 609 608 608 609 611 613 616 619 622 625 627 629 632 635 637 640 643 645 647 648 651 654 656 657 659 660 662 664 666 668 671 673 675 677 679 681 682 684 687 689 690 690 690
689 683 678 674 668 663 659 653 648 643 638 632 628 624 621 619 615 612 609 607 605 605 605 606 608 610 612 615 618 621 623 625 628 631 634 637 640 642 643 645 648 651 653 655 656 657 659 661 663 665 667 669 672 674 676 677 679 682 684 686 687 688 689
686 679 673 668 663 658 653 648 643 638 633 628 624 620 617 615 612 609 606 604 603 602 603 604 606 608 610 613 615 618 620 622 624 627 631 633 636 638 640 642 645 648 650 652 654 655 657 658 660 662 663 665 668 671 673 674 676 679 681 682 684 686 687
681 675 668 663 658 653 647 642 638 633 628 624 620 616 613 611 609 607 605 602 601 601 601 602 604 606 608 610 612 614 617 619 621 624 627 630 632 634 637 640 642 644 647 649 651 653 655 656 658 659 660 662 664 667 670 672 673 675 677 679 681 683 684
676 671 664 657 651 646 641 636 632 628 624 620 616 612 609 608 606 604 603 601 600 600 600 601 602 604 606 608 610 612 614 616 618 621 624 626 629 631 634 637 638 641 644 647 649 651 653 654 656 657 658 660 661 663 666 669 671 673 675 676 678 679 681
672 667 660 653 646 639 633 629 625 621 618 615 611 608 606 605 603 602 601 599 598 598 599 600 601 603 605 607 608 609 611 613 616 619 621 623 626 628 631 634 635 638 641 643 646 648 650 651 653 655 656 658 659 660 663 666 668 670 672 674 675 677 678
669 664 658 650 642 634 627 622 618 615 612 609 607 605 603 602 601 600 599 598 597 596 597 598 600 601 603 605 606 607 609 611 613 616 618 620 623 625 628 630 632 635 638 641 643 645 646 647 649 651 653 654 656 659 661 664 666 668 670 671 673 674 676
666 661 655 647 639 631 623 617 612 609 606 604 603 602 601 600 599 598 598 597 596 596 596 597 598 600 602 603 605 606 608 610 612 614 616 618 620 622 624 626 628 631 635 638 640 642 643 644 646 647 649 652 655 658 660 662 664 665 667 669 671 673 674
664 658 651 643 636 628 620 613 609 604 601 600 599 598 598 597 597 596 596 596 595 595 595 596 597 599 601 602 604 605 607 609 611 613 614 616 618 620 621 623 625 628 631 634 636 638 640 641 643 645 647 650 653 656 657 659 661 663 665 667 669 671 672
662 656 649 640 632 625 618 611 606 601 598 597 596 596 595 595 595 595 595 595 594 594 594 595 597 598 600 602 603 605 606 608 610 611 613 614 616 617 619 620 622 624 627 630 632 635 637 639 641 643 645 648 650 652 654 656 659 661 663 665 667 669 670
662 654 647 639 631 624 616 609 603 598 596 594 594 593 592 592 593 593 593 593 594 594 594 595 596 598 599 601 603 604 605 607 608 610 612 613 614 615 617 618 619 622 624 627 630 632 635 636 638 641 642 644 646 649 651 654 656 659 660 662 665 667 668
661 653 646 639 632 625 617 609 600 595 592 592 591 591 590 590 590 591 591 591 592 594 594 595 596 598 599 601 602 603 604 605 607 609 610 611 612 613 614 616 617 619 622 624 627 630 632 634 635 637 639 641 644 646 649 651 654 656 658 660 662 664 666
658 651 645 639 632 626 619 611 601 594 590 589 589 589 588 588 588 589 590 591 592 593 594 595 597 598 599 601 602 603 603 604 605 606 607 608 609 610 611 613 615 616 619 622 625 627 629 631 633 634 637 639 641 644 647 649 651 654 656 658 659 662 664
655 649 644 640 634 626 619 611 603 594 588 587 587 586 586 586 586 587 589 590 591 593 594 595 597 598 599 600 601 602 602 603 603 604 604 605 606 607 609 610 612 614 617 619 622 625 627 628 630 632 635 637 640 642 645 647 650 652 654 656 658 659 662
655 648 643 639 635 628 620 613 605 596 589 586 586 586 586 585 585 586 587 589 591 593 594 595 596 598 599 600 600 600 601 602 602 602 602 602 603 605 606 608 610 613 615 617 620 622 625 627 628 631 633 636 638 641 643 646 648 650 652 654 656 658 660
655 650 645 641 635 630 623 616 609 601 593 589 587 586 586 585 584 585 587 589 592 593 594 595 596 597 598 598 599 599 600 600 600 599 599 599 601 602 604 606 609 611 614 616 618 620 622 625 627 629 632 634 637 639 642 644 647 649 651 653 655 657 659
654 652 648 643 638 633 627 620 614 608 602 597 593 591 588 586 585 587 589 591 593 595 595 596 597 597 598 598 598 598 598 598 597 596 596 597 599 601 603 606 608 610 613 615 617 619 621 623 625 628 630 633 636 638 641 643 646 648 650 652 654 656 657
659 655 652 648 644 639 633 626 620 616 611 606 602 598 593 591 591 594 595 596 597 597 597 597 598 598 598 598 598 598 598 598 596 595 596 597 600 602 604 606 608 610 612 614 616 619 620 622 625 627 630 632 635 638 640 643 646 648 649 651 653 654 656
666 660 656 652 647 642 636 631 627 623 619 614 610 605 601 600 602 603 603 602 602 602 601 601 600 600 600 600 599 599 599 598 598 598 598 600 601 603 605 607 609 611 613 615 618 620 621 623 626 628 630 633 635 638 640 643 645 647 649 651 652 653 655